Caro, MI

8:59 PM EDT on September 19, 2019 (GMT -0400)
Caro

Weather History for KCFS - August, 2019

Change the Weather History Date:

Sunday, August 18, 2019

  Actual Average (WUND) Record (WUND)
Temperature  
Mean Temperature 74 °F -  
Max Temperature 83 °F - - (-1)
Min Temperature 65 °F - - (-1)
Cooling Degree Days 9    
Growing Degree Days 24 (Base 50)    
Moisture  
Dew Point 67 °F    
Average Humidity 82    
Maximum Humidity 95    
Minimum Humidity 62    
Precipitation  
Precipitation 0.00 in - - ()
Sea Level Pressure  
Sea Level Pressure 29.86 in    
Wind  
Wind Speed 5 mph (South)    
Max Wind Speed 13 mph    
Max Gust Speed 26 mph    
Visibility 9 miles    
Events Fog , Rain    
Averages and records for this station are not official NWS values.
T = Trace of Precipitation, MM = Missing Value Source: NWS Daily Summary

Daily Weather History Graph

Daily Weather History Graph

Search for Another Location

Airport or City:

Astronomy

Aug. 18, 2019 Rise Set
Actual Time 6:41 AM EDT 8:32 PM EDT
Civil Twilight 6:11 AM EDT 9:03 PM EDT
Nautical Twilight 5:33 AM EDT 9:40 PM EDT
Astronomical Twilight 4:53 AM EDT 10:20 PM EDT
Moon 10:22 PM EDT (8/18) 9:29 AM EDT (8/18)
Length of Visible Light 14h 52m
Length of Day
13h 50m
Waning Gibbous, 91% of the Moon is Illuminated
Aug 18
Waning Gibbous
Aug 23
Last Quarter
Aug 30
New
Sep 5
First Quarter
Sep 14
Full

Hourly Weather History & Observations

Time (EDT) Temp. Heat Index Dew Point Humidity Pressure Visibility Wind Dir Wind Speed Gust Speed Precip Events Conditions
12:15 AM 70.0 °F - 64.6 °F 83% 29.92 in 10.0 mi SE 4.6 mph - N/A   Mostly Cloudy
12:36 AM 71.1 °F - 63.7 °F 77% 29.92 in 10.0 mi SSE 3.5 mph - N/A   Overcast
12:55 AM 71.6 °F - 64.2 °F 77% 29.92 in 10.0 mi SSE 3.5 mph - N/A   Mostly Cloudy
12:56 AM 71.6 °F - 64.2 °F 77% 29.92 in 10.0 mi SSE 4.6 mph - N/A   Mostly Cloudy
1:15 AM 71.6 °F - 64.8 °F 79% 29.92 in 10.0 mi South 3.5 mph - N/A   Scattered Clouds
1:16 AM 71.6 °F - 64.9 °F 79% 29.92 in 10.0 mi South 3.5 mph - N/A   Scattered Clouds
1:39 AM 71.6 °F - 65.8 °F 82% 29.92 in 10.0 mi SSW 6.9 mph - N/A   Scattered Clouds
1:56 AM 71.6 °F - 65.8 °F 82% 29.92 in 10.0 mi SSW 5.8 mph - N/A   Scattered Clouds
2:16 AM 71.1 °F - 66.6 °F 86% 29.92 in 10.0 mi SSW 8.1 mph - N/A Rain Rain
2:35 AM 70.0 °F - 67.1 °F 91% 29.91 in 7.0 mi SSW 5.8 mph - N/A Rain Rain
2:36 AM 70.0 °F - 67.1 °F 91% 29.91 in 7.0 mi SSW 6.9 mph - N/A Rain Rain
2:55 AM 69.6 °F - 67.1 °F 92% 29.90 in 10.0 mi SSW 3.5 mph - N/A Rain Rain
3:18 AM 69.3 °F - 67.1 °F 93% 29.89 in 10.0 mi Calm Calm - N/A Rain Light Rain
3:36 AM 68.9 °F - 66.7 °F 93% 29.89 in 10.0 mi Calm Calm - N/A Rain Light Rain
3:55 AM 68.7 °F - 66.6 °F 93% 29.88 in 10.0 mi East 3.5 mph - N/A   Light Drizzle
3:56 AM 68.7 °F - 66.6 °F 93% 29.88 in 10.0 mi ESE 3.5 mph - N/A   Light Drizzle
4:15 AM 68.9 °F - 66.7 °F 93% 29.89 in 7.0 mi ESE 3.5 mph - N/A   Clear
4:16 AM 68.7 °F - 66.7 °F 93% 29.88 in 7.0 mi ESE 3.5 mph - N/A   Clear
4:39 AM 68.5 °F - 66.6 °F 93% 29.89 in 10.0 mi Calm Calm - N/A   Clear
4:57 AM 68.2 °F - 66.2 °F 93% 29.89 in 7.0 mi Calm Calm - N/A   Clear
5:15 AM 67.5 °F - 65.7 °F 94% 29.88 in 5.0 mi ESE 3.5 mph - N/A   Clear
5:16 AM 67.5 °F - 65.7 °F 94% 29.88 in 5.0 mi ESE 3.5 mph - N/A   Clear
5:35 AM 67.8 °F - 65.8 °F 93% 29.88 in 10.0 mi Calm Calm - N/A   Clear
5:55 AM 67.1 °F - 65.3 °F 94% 29.88 in 4.0 mi Calm Calm - N/A   Clear
6:18 AM 66.4 °F - 64.8 °F 95% 29.88 in 0.8 mi Calm Calm - N/A   Mist
6:35 AM 65.8 °F - 64.2 °F 94% 29.89 in 0.5 mi Calm Calm - N/A Fog Fog
6:55 AM 66.0 °F - 64.4 °F 94% 29.89 in 0.2 mi Calm Calm - N/A Fog Fog
6:56 AM 66.0 °F - 64.4 °F 94% 29.89 in 0.2 mi Calm Calm - N/A Fog Fog
7:15 AM 66.0 °F - 64.4 °F 94% 29.88 in 1.8 mi Calm Calm - N/A   Mist
7:39 AM 67.3 °F - 65.7 °F 95% 29.88 in 5.0 mi Calm Calm - N/A   Clear
7:57 AM 68.4 °F - 66.6 °F 94% 29.88 in 7.0 mi Calm Calm - N/A   Clear
8:15 AM 69.6 °F - 67.5 °F 93% 29.89 in 7.0 mi SSE 4.6 mph - N/A   Clear
8:16 AM 69.6 °F - 67.5 °F 93% 29.89 in 7.0 mi SSE 3.5 mph - N/A   Clear
8:35 AM 70.9 °F - 68.2 °F 91% 29.89 in 7.0 mi South 3.5 mph - N/A   Scattered Clouds
8:36 AM 70.9 °F - 68.2 °F 91% 29.88 in 7.0 mi South 3.5 mph - N/A   Scattered Clouds
8:55 AM 72.1 °F - 68.7 °F 89% 29.90 in 10.0 mi South 4.6 mph - N/A   Mostly Cloudy
9:00 AM 72.3 °F - 68.9 °F 89% 29.89 in 10.0 mi South 6.9 mph - N/A   Mostly Cloudy
9:17 AM 72.5 °F - 69.1 °F 89% 29.89 in 7.0 mi South 5.8 mph - N/A   Mostly Cloudy
9:36 AM 73.2 °F - 69.6 °F 88% 29.89 in 7.0 mi SSE 8.1 mph - N/A   Overcast
9:55 AM 73.4 °F - 69.4 °F 87% 29.87 in 7.0 mi SE 6.9 mph - N/A   Overcast
9:56 AM 73.2 °F - 69.4 °F 88% 29.87 in 7.0 mi SE 6.9 mph - N/A   Overcast
10:15 AM 73.6 °F - 69.4 °F 87% 29.87 in 10.0 mi SE 6.9 mph - N/A   Overcast
10:16 AM 73.6 °F - 69.6 °F 87% 29.87 in 10.0 mi SE 6.9 mph - N/A   Overcast
10:39 AM 74.3 °F - 69.6 °F 85% 29.87 in 7.0 mi SSE 9.2 mph - N/A   Overcast
10:57 AM 75.2 °F - 69.3 °F 82% 29.86 in 10.0 mi South 6.9 mph - N/A   Overcast
11:15 AM 77.4 °F - 69.4 °F 76% 29.87 in 10.0 mi South 8.1 mph - N/A   Scattered Clouds
11:35 AM 79.2 °F - 69.1 °F 71% 29.87 in 10.0 mi South 8.1 mph - N/A   Clear
11:55 AM 80.8 °F 83.9 °F 69.3 °F 68% 29.87 in 10.0 mi South 12.7 mph - N/A   Clear
12:00 PM 80.6 °F 83.5 °F 68.7 °F 67% 29.87 in 10.0 mi SSW 8.1 mph - N/A   Clear
12:18 PM 81.1 °F 84.4 °F 69.3 °F 67% 29.87 in 10.0 mi SSW 10.4 mph 17.3 mph N/A   Clear
12:36 PM 82.9 °F 87.2 °F 70.5 °F 66% 29.87 in 10.0 mi South 9.2 mph - N/A   Clear
12:55 PM 83.7 °F 88.0 °F 70.3 °F 64% 29.87 in 10.0 mi SSW 11.5 mph 16.1 mph N/A   Clear
1:15 PM 83.8 °F 88.3 °F 70.5 °F 64% 29.87 in 10.0 mi SSW 9.2 mph - N/A   Scattered Clouds
1:39 PM 82.8 °F 86.9 °F 70.3 °F 66% 29.87 in 10.0 mi SW 11.5 mph - N/A   Mostly Cloudy
1:57 PM 75.6 °F - 69.3 °F 81% 29.87 in 3.0 mi SW 10.4 mph 26.5 mph N/A Rain Rain
2:15 PM 75.9 °F - 69.1 °F 79% 29.87 in 10.0 mi SW 6.9 mph - N/A   Scattered Clouds
2:35 PM 77.0 °F - 71.2 °F 82% 29.85 in 10.0 mi SSE 5.8 mph - N/A   Scattered Clouds
2:55 PM 79.9 °F - 72.5 °F 78% 29.82 in 10.0 mi SSE 6.9 mph - N/A   Clear
3:18 PM 79.9 °F - 70.3 °F 73% 29.75 in 10.0 mi SSE 6.9 mph - N/A   Clear
3:36 PM 79.3 °F - 70.7 °F 75% 29.77 in 10.0 mi SSW 5.8 mph - N/A   Clear
3:55 PM 80.8 °F 84.2 °F 70.0 °F 70% 29.76 in 10.0 mi South 3.5 mph - N/A   Clear
4:15 PM 82.6 °F 86.1 °F 69.4 °F 64% 29.77 in 10.0 mi South 8.1 mph - N/A   Clear
4:39 PM 81.7 °F 84.3 °F 67.6 °F 62% 29.77 in 10.0 mi South 10.4 mph - N/A   Clear
4:57 PM 81.5 °F 84.6 °F 68.7 °F 65% 29.78 in 10.0 mi South 10.4 mph - N/A   Clear
5:15 PM 81.5 °F 84.6 °F 68.7 °F 65% 29.79 in 10.0 mi South 9.2 mph - N/A   Clear
5:35 PM 81.5 °F 84.6 °F 68.7 °F 65% 29.80 in 10.0 mi SSW 6.9 mph - N/A   Scattered Clouds
5:55 PM 81.3 °F 84.3 °F 68.5 °F 65% 29.80 in 10.0 mi WSW 8.1 mph - N/A   Scattered Clouds
5:59 PM 81.5 °F 84.4 °F 68.2 °F 64% 29.81 in 10.0 mi WSW 9.2 mph - N/A   Scattered Clouds
6:18 PM 80.6 °F 83.1 °F 67.3 °F 64% 29.82 in 10.0 mi WSW 10.4 mph - N/A   Mostly Cloudy
6:36 PM 80.6 °F 83.4 °F 68.2 °F 66% 29.80 in 10.0 mi SW 5.8 mph - N/A   Mostly Cloudy
6:55 PM 79.3 °F - 68.4 °F 69% 29.79 in 10.0 mi SSW 6.9 mph - N/A   Clear
7:15 PM 79.0 °F - 68.5 °F 70% 29.79 in 10.0 mi SSW 6.9 mph - N/A Rain Light Rain
7:39 PM 74.7 °F - 66.6 °F 76% 29.79 in 10.0 mi SSW 10.4 mph - N/A Rain Light Rain
7:57 PM 73.4 °F - 66.6 °F 79% 29.79 in 10.0 mi SSW 8.1 mph - N/A   Scattered Clouds
8:16 PM 72.1 °F - 67.5 °F 85% 29.79 in 10.0 mi SSW 6.9 mph - N/A   Scattered Clouds
8:35 PM 71.8 °F - 67.5 °F 86% 29.79 in 10.0 mi SW 5.8 mph - N/A   Clear
8:55 PM 72.1 °F - 67.3 °F 85% 29.80 in 10.0 mi SW 4.6 mph - N/A   Clear
9:00 PM 72.0 °F - 67.3 °F 85% 29.80 in 10.0 mi SW 4.6 mph - N/A   Clear
9:18 PM 72.0 °F - 67.5 °F 86% 29.82 in 10.0 mi SW 3.5 mph - N/A   Clear
9:36 PM 71.6 °F - 67.5 °F 87% 29.82 in 10.0 mi WSW 3.5 mph - N/A   Clear
9:55 PM 71.6 °F - 67.1 °F 86% 29.84 in 10.0 mi WSW 3.5 mph - N/A   Clear
10:15 PM 71.1 °F - 67.1 °F 87% 29.85 in 10.0 mi SW 3.5 mph - N/A   Clear
10:39 PM 72.0 °F - 66.0 °F 81% 29.85 in 10.0 mi WSW 4.6 mph - N/A   Clear
10:57 PM 72.0 °F - 64.9 °F 78% 29.86 in 10.0 mi WSW 3.5 mph - N/A   Clear
11:15 PM 71.2 °F - 65.1 °F 81% 29.87 in 10.0 mi WSW 3.5 mph - N/A   Clear
11:16 PM 71.2 °F - 65.1 °F 81% 29.87 in 10.0 mi SW 3.5 mph - N/A   Clear
11:35 PM 70.7 °F - 64.9 °F 82% 29.87 in 10.0 mi SSW 4.6 mph - N/A   Clear
11:55 PM 69.3 °F - 65.3 °F 87% 29.88 in 10.0 mi Calm Calm - N/A   Clear